星链-36763(STARLINK-36763)

导读

STARLINK-36763是美国SpaceX星链星座的卫星,于2026年2月22日发射升空,作为星链互联网项目的组成部分,承担着向全球提供低延迟、高速宽带互联网服务的任务。它部署在近地轨道,依靠星座组网,可覆盖偏远地区,补充全球网络基础设施。

基本信息
目录编号:
67906
目录名称:
STARLINK-36763
国际标识:
2026-036C
轨道中心:
EARTH
卫星名称:
星链-36763
卫星全名:
星链-36763(STARLINK-36763)
卫星状态:
在轨 (已飞行194 天)
发射日期:
2026-02-22 UTC
国别 :
美国 (US)
星等 :
--
轨道信息
数据来源 国际轨道数据
星历时间: 2026-09-03T23:22:16+0800
1天前
查看轨道信息
半长轴: 6861.214km
偏心率: 0.0001436
轨道倾角: 43.001°
近地点辐角 272.995°
升交点赤经 320.623°
平近点角 87.074°
近地点: 482.091km
远地点: 484.063km
周期: 94.267分钟
每日圈数: 15.275707
详细信息
固有亮度:
5
最大亮度:
2.5
卫星平台:
Starlink V1.0
覆盖范围:
全球
运营商:
太空探索技术公司
运营商所在国:
美国
制造商(研发单位):
太空探索技术公司
制造商所在国:
美国
使用方式:
暂无
卫星简介
Starlink 计划是 SpaceX 推出的全球卫星互联网项目,通过发射低轨道卫星,为全球尤其是偏远地区提供高速、低延迟的互联网服务。自 2019 年起,Starlink 已部署数千颗卫星,旨在缩小全球数字鸿沟,推动互联网普及。该项目还为军事、航空等行业提供通信支持,带来广泛经济效益。
2D轨道图
3D轨道图
轨道高度分析图
轨道倾角分析图
轨道综合分析图
查看轨道综合分析图